EN

Hourly Weather Pinsa

Today, 1 October, Thursday

Time Temperature Precipitation Wind Pressure Humidity
00:00 +29°C° 0 mm 6 mps 732 mmHg 68%
01:00 +29°C° 0 mm 6 mps 732 mmHg 69%
02:00 +29°C° 0 mm 5 mps 732 mmHg 69%
03:00 +28°C° 0 mm 5 mps 731 mmHg 69%
04:00 +28°C° 0 mm 4 mps 732 mmHg 70%
05:00 +28°C° 0 mm 3 mps 732 mmHg 71%
06:00 +28°C° 0 mm 2 mps 732 mmHg 72%
07:00 +29°C° 0 mm 3 mps 732 mmHg 67%
08:00 +30°C° 0 mm 3 mps 733 mmHg 62%
09:00 +33°C° 0 mm 4 mps 733 mmHg 58%
10:00 +34°C° 0 mm 4 mps 733 mmHg 52%
11:00 +36°C° 0 mm 3 mps 732 mmHg 46%
12:00 +37°C° 0 mm 3 mps 732 mmHg 40%
13:00 +38°C° 0 mm 3 mps 731 mmHg 37%
14:00 +39°C° 0 mm 3 mps 731 mmHg 35%
15:00 +39°C° 0 mm 3 mps 730 mmHg 32%
16:00 +39°C° 0 mm 3 mps 730 mmHg 33%
17:00 +38°C° 0 mm 3 mps 730 mmHg 34%
18:00 +38°C° 0 mm 3 mps 730 mmHg 34%
19:00 +36°C° 0 mm 4 mps 731 mmHg 41%
20:00 +35°C° 0 mm 5 mps 731 mmHg 47%
21:00 +33°C° 0 mm 6 mps 732 mmHg 53%
22:00 +33°C° 0 mm 6 mps 732 mmHg 55%
23:00 +32°C° 0 mm 5 mps 732 mmHg 56%

Tomorrow, 2 October, Friday

Time Temperature Precipitation Wind Pressure Humidity
00:00 +32°C° 0 mm 5 mps 732 mmHg 57%
01:00 +30°C° 0 mm 5 mps 732 mmHg 60%
02:00 +30°C° 0 mm 5 mps 731 mmHg 62%
03:00 +29°C° 0 mm 4 mps 731 mmHg 65%
04:00 +29°C° 0 mm 4 mps 731 mmHg 67%
05:00 +28°C° 0 mm 4 mps 731 mmHg 70%
06:00 +28°C° 0 mm 4 mps 732 mmHg 72%
07:00 +29°C° 0 mm 5 mps 732 mmHg 68%
08:00 +30°C° 0 mm 5 mps 733 mmHg 63%
09:00 +33°C° 0 mm 6 mps 733 mmHg 59%
10:00 +34°C° 0 mm 6 mps 733 mmHg 52%
11:00 +36°C° 0 mm 6 mps 732 mmHg 46%
12:00 +39°C° 0 mm 5 mps 732 mmHg 39%
13:00 +39°C° 0 mm 5 mps 731 mmHg 37%
14:00 +40°C° 0 mm 5 mps 731 mmHg 35%
15:00 +40°C° 0 mm 5 mps 730 mmHg 33%
16:00 +40°C° 0 mm 4 mps 730 mmHg 34%
17:00 +38°C° 0 mm 4 mps 730 mmHg 36%
18:00 +37°C° 0 mm 4 mps 730 mmHg 38%
19:00 +36°C° 0 mm 4 mps 731 mmHg 41%
20:00 +35°C° 0 mm 4 mps 731 mmHg 43%
21:00 +34°C° 0 mm 4 mps 732 mmHg 46%
22:00 +34°C° 0 mm 5 mps 732 mmHg 50%
23:00 +33°C° 0 mm 5 mps 732 mmHg 55%

Day after tomorrow, 3 October, Saturday

Time Temperature Precipitation Wind Pressure Humidity
00:00 +32°C° 0 mm 5 mps 733 mmHg 60%
01:00 +30°C° 0 mm 5 mps 732 mmHg 63%
02:00 +30°C° 0 mm 5 mps 732 mmHg 66%
03:00 +29°C° 0 mm 5 mps 732 mmHg 70%
04:00 +29°C° 0 mm 5 mps 733 mmHg 70%
05:00 +29°C° 0 mm 5 mps 733 mmHg 71%
06:00 +28°C° 0 mm 5 mps 733 mmHg 72%
07:00 +29°C° 0 mm 4 mps 734 mmHg 67%
08:00 +31°C° 0 mm 3 mps 734 mmHg 61%
09:00 +33°C° 0 mm 3 mps 735 mmHg 56%
10:00 +34°C° 0 mm 2 mps 734 mmHg 51%
11:00 +34°C° 0 mm 1 mps 734 mmHg 46%
12:00 +35°C° 0 mm 1 mps 733 mmHg 41%
13:00 +35°C° 0.2 mm 1 mps 733 mmHg 41%
14:00 +36°C° 0.2 mm 2 mps 732 mmHg 42%
15:00 +36°C° 0.2 mm 2 mps 732 mmHg 43%
16:00 +33°C° 5.3 mm 4 mps 731 mmHg 55%
17:00 +29°C° 5.3 mm 6 mps 731 mmHg 67%
18:00 +26°C° 5.3 mm 8 mps 731 mmHg 80%
19:00 +28°C° 0.7 mm 6 mps 732 mmHg 71%
20:00 +29°C° 0.7 mm 3 mps 733 mmHg 62%
21:00 +29°C° 0.7 mm 0 mps 733 mmHg 53%
22:00 +30°C° 0.1 mm 1 mps 733 mmHg 55%
23:00 +30°C° 0.1 mm 2 mps 733 mmHg 58%

4 October, Sunday

Time Temperature Precipitation Wind Pressure Humidity
00:00 +29°C° 0.1 mm 3 mps 733 mmHg 61%
01:00 +29°C° 0 mm 2 mps 733 mmHg 63%
02:00 +29°C° 0 mm 2 mps 733 mmHg 65%
03:00 +29°C° 0 mm 1 mps 733 mmHg 67%
04:00 +29°C° 0 mm 2 mps 733 mmHg 67%
05:00 +28°C° 0 mm 2 mps 734 mmHg 68%
06:00 +28°C° 0 mm 3 mps 734 mmHg 69%
07:00 +29°C° 0 mm 3 mps 735 mmHg 65%
08:00 +30°C° 0 mm 4 mps 735 mmHg 60%
09:00 +33°C° 0 mm 4 mps 736 mmHg 56%
10:00 +34°C° 0 mm 4 mps 735 mmHg 51%
11:00 +35°C° 0 mm 4 mps 735 mmHg 46%
12:00 +36°C° 0 mm 3 mps 734 mmHg 40%
13:00 +37°C° 0 mm 3 mps 734 mmHg 38%
14:00 +37°C° 0 mm 4 mps 733 mmHg 35%
15:00 +38°C° 0 mm 4 mps 733 mmHg 32%
16:00 +37°C° 0 mm 3 mps 733 mmHg 34%
17:00 +37°C° 0 mm 3 mps 733 mmHg 36%
18:00 +36°C° 0 mm 3 mps 733 mmHg 38%
19:00 +35°C° 0 mm 3 mps 733 mmHg 41%
20:00 +35°C° 0 mm 2 mps 734 mmHg 44%
21:00 +34°C° 0 mm 2 mps 734 mmHg 47%
22:00 +32°C° 0 mm 2 mps 734 mmHg 49%
23:00 +32°C° 0 mm 2 mps 734 mmHg 51%

5 October, Monday

Time Temperature Precipitation Wind Pressure Humidity
00:00 +31°C° 0 mm 2 mps 734 mmHg 54%
01:00 +31°C° 0 mm 2 mps 734 mmHg 56%
02:00 +30°C° 0 mm 2 mps 734 mmHg 59%
03:00 +30°C° 0 mm 2 mps 734 mmHg 61%
04:00 +29°C° 0 mm 3 mps 734 mmHg 63%
05:00 +29°C° 0 mm 3 mps 734 mmHg 64%
06:00 +29°C° 0 mm 3 mps 734 mmHg 66%
07:00 +30°C° 0 mm 3 mps 735 mmHg 62%
08:00 +31°C° 0 mm 3 mps 735 mmHg 58%
09:00 +32°C° 0 mm 2 mps 735 mmHg 54%
10:00 +34°C° 0 mm 2 mps 735 mmHg 49%
11:00 +36°C° 0 mm 2 mps 735 mmHg 43%
12:00 +37°C° 0 mm 2 mps 734 mmHg 38%
13:00 +38°C° 0 mm 2 mps 734 mmHg 36%
14:00 +39°C° 0 mm 2 mps 733 mmHg 33%
15:00 +39°C° 0 mm 2 mps 732 mmHg 31%
16:00 +39°C° 0 mm 1 mps 732 mmHg 32%
17:00 +39°C° 0 mm 1 mps 732 mmHg 33%
18:00 +37°C° 0 mm 1 mps 732 mmHg 33%
19:00 +37°C° 0 mm 1 mps 733 mmHg 35%
20:00 +37°C° 0 mm 2 mps 733 mmHg 36%
21:00 +36°C° 0 mm 2 mps 733 mmHg 37%
22:00 +35°C° 0 mm 3 mps 733 mmHg 40%
23:00 +35°C° 0 mm 3 mps 733 mmHg 43%

6 October, Tuesday

Time Temperature Precipitation Wind Pressure Humidity
00:00 +34°C° 0 mm 4 mps 733 mmHg 46%
01:00 +33°C° 0 mm 4 mps 733 mmHg 47%
02:00 +33°C° 0 mm 3 mps 733 mmHg 48%
03:00 +31°C° 0 mm 3 mps 732 mmHg 49%
04:00 +31°C° 0 mm 3 mps 733 mmHg 50%
05:00 +30°C° 0 mm 3 mps 733 mmHg 51%
06:00 +30°C° 0 mm 3 mps 733 mmHg 52%
07:00 +32°C° 0 mm 4 mps 733 mmHg 49%
08:00 +33°C° 0 mm 4 mps 733 mmHg 47%
09:00 +35°C° 0 mm 4 mps 734 mmHg 44%
10:00 +37°C° 0 mm 4 mps 733 mmHg 38%
11:00 +40°C° 0 mm 4 mps 733 mmHg 32%
12:00 +42°C° 0 mm 4 mps 732 mmHg 26%
13:00 +42°C° 0 mm 3 mps 731 mmHg 24%
14:00 +42°C° 0 mm 2 mps 731 mmHg 22%
15:00 +42°C° 0 mm 1 mps 730 mmHg 20%
16:00 +42°C° 0 mm 1 mps 730 mmHg 21%
17:00 +41°C° 0 mm 2 mps 730 mmHg 22%
18:00 +40°C° 0 mm 2 mps 730 mmHg 23%
19:00 +39°C° 0 mm 2 mps 730 mmHg 27%
20:00 +38°C° 0 mm 3 mps 731 mmHg 31%
21:00 +37°C° 0 mm 4 mps 731 mmHg 35%
22:00 +36°C° 0 mm 4 mps 731 mmHg 38%
23:00 +35°C° 0 mm 5 mps 731 mmHg 40%
Show more